This is the latest recevied weather packets stored in our database for station/object KN6CRX. If no packets are shown the sender has not sent any weather packets the latest 10 day(s).
| Time | Temp. | Humidity | Pressure | Rain* | Wind** | Luminosity | Snow |
|---|---|---|---|---|---|---|---|
| 1787839313 | 15.56° C | 67% | 1023.2 hPa | 0 mm | - | 33 W/m² | - |
| 1787839013 | 15° C | 67% | 1023.2 hPa | 0 mm | - | 32 W/m² | - |
| 1787838711 | 15° C | 68% | 1023.2 hPa | 0 mm | - | 30 W/m² | - |
| 1787838411 | 13.89° C | 70% | 1023.1 hPa | 0 mm | - | 29 W/m² | - |
| 1787838110 | 13.89° C | 71% | 1023.2 hPa | 0 mm | - | 27 W/m² | - |
| 1787837805 | 13.33° C | 71% | 1022.9 hPa | 0 mm | - | 26 W/m² | - |
| 1787837500 | 13.33° C | 72% | 1023.1 hPa | 0 mm | - | 24 W/m² | - |
| 1787837199 | 12.78° C | 73% | 1023.2 hPa | 0 mm | - | 22 W/m² | - |
| 1787836898 | 12.78° C | 74% | 1023 hPa | 0 mm | - | 19 W/m² | - |
| 1787836594 | 12.78° C | 72% | 1023.1 hPa | 0 mm | - | 16 W/m² | - |
| 1787836294 | 12.78° C | 73% | 1023 hPa | 0 mm | - | 14 W/m² | - |
| 1787835989 | 12.78° C | 74% | 1023 hPa | 0 mm | - | 11 W/m² | - |
| 1787835685 | 12.78° C | 73% | 1023 hPa | 0 mm | - | 7 W/m² | - |
| 1787835380 | 12.78° C | 73% | 1023 hPa | 0 mm | - | 5 W/m² | - |
| 1787835075 | 13.33° C | 73% | 1022.9 hPa | 0 mm | - | 4 W/m² | - |
| 1787834773 | 13.33° C | 72% | 1022.9 hPa | 0 mm | - | 2 W/m² | - |
| 1787834469 | 13.33° C | 71% | 1023 hPa | 0 mm | - | 1 W/m² | - |
| 1787834164 | 13.33° C | 70% | 1022.6 hPa | 0 mm | - | 1 W/m² | - |
| 1787833860 | 13.33° C | 71% | 1022.8 hPa | 0 mm | - | 0 W/m² | - |
| 1787833555 | 13.89° C | 69% | 1022.6 hPa | 0 mm | - | 0 W/m² | - |
| 1787833251 | 13.89° C | 68% | 1022.9 hPa | 0 mm | - | 0 W/m² | - |
| 1787832946 | 13.89° C | 69% | 1022.8 hPa | 0 mm | - | 0 W/m² | - |
| 1787832643 | 13.89° C | 69% | 1023 hPa | 0 mm | - | 0 W/m² | - |
| 1787832340 | 13.89° C | 68% | 1023.1 hPa | 0 mm | - | 0 W/m² | - |
| 1787832041 | 13.89° C | 69% | 1022.9 hPa | 0 mm | - | 0 W/m² | - |
* Rain latest hour (hover to see other rain measurements)
** Current wind speed in m/s (hover to see current wind gust speed)